GPS BIIA-10 (PRN 32) 1 20959U 90103A 08132.19894695 -.00000052 00000-0 10000-3 0 8275 2 20959 55.5505 299.0802 0140393 285.1054 73.3334 2.00447353127840 GPS BIIA-11 (PRN 24) 1 21552U 91047A 08131.94122598 -.00000035 00000-0 10000-3 0 8788 2 21552 54.6098 237.1982 0079061 317.6221 41.7874 2.00563451123425 GPS BIIA-12 (PRN 25) 1 21890U 92009A 08131.94050715 -.00000067 00000-0 10000-3 0 8687 2 21890 55.2629 48.8189 0114998 290.1482 68.6263 2.00559845118804 GPS BIIA-14 (PRN 26) 1 22014U 92039A 08132.04522718 -.00000098 00000-0 10000-3 0 3441 2 22014 56.9192 356.8419 0188654 52.6724 309.0733 2.00573103109575 GPS BIIA-15 (PRN 27) 1 22108U 92058A 08131.97347809 -.00000063 00000-0 10000-3 0 6459 2 22108 55.5315 50.8014 0212921 262.1232 95.4578 2.00576827114755 GPS BIIA-21 (PRN 09) 1 22700U 93042A 08131.17016303 -.00000057 00000-0 10000-3 0 520 2 22700 55.6428 52.1981 0195631 80.2184 281.9838 2.00564425108890 GPS BIIA-22 (PRN 05) 1 22779U 93054A 08132.26920111 .00000046 00000-0 10000-3 0 5602 2 22779 54.0039 109.0285 0084582 69.5113 291.3767 2.00571166107671 GPS BIIA-23 (PRN 04) 1 22877U 93068A 08131.80376074 -.00000033 00000-0 10000-3 0 3478 2 22877 54.0234 234.8383 0079814 20.1710 340.1627 2.00552046106551 GPS BIIA-24 (PRN 06) 1 23027U 94016A 08131.97911154 .00000026 00000-0 10000-3 0 3833 2 23027 53.4859 171.9195 0056618 264.0183 95.3984 2.00407331103869 GPS BIIA-25 (PRN 03) 1 23833U 96019A 08132.01713722 .00000030 00000-0 10000-3 0 5602 2 23833 53.0550 168.2274 0103655 45.7996 315.1065 2.00562311 88848 GPS BIIA-26 (PRN 10) 1 23953U 96041A 08132.43936634 -.00000052 00000-0 10000-3 0 9828 2 23953 55.2323 295.6941 0079608 30.7348 329.7043 2.00569757 86648 GPS BIIA-27 (PRN 30) 1 24320U 96056A 08132.29586754 .00000050 00000-0 10000-3 0 7477 2 24320 54.3541 111.9760 0103019 78.2616 282.8764 2.00555143 85302 GPS BIIR-02 (PRN 13) 1 24876U 97035A 08132.39228726 -.00000099 00000-0 10000-3 0 5207 2 24876 57.0398 356.9010 0034739 81.4291 279.0049 2.00567505 79171 GPS BIIA-28 (PRN 08) 1 25030U 97067A 08132.01816411 -.00000050 00000-0 10000-3 0 4271 2 25030 56.3393 57.2764 0099945 166.5643 193.7013 2.00570065 77068 GPS BIIR-03 (PRN 11) 1 25933U 99055A 08132.16998399 -.00000035 00000-0 10000-3 0 26 2 25933 51.0695 223.3808 0078888 32.8447 327.6792 2.00568311 62980 GPS BIIR-04 (PRN 20) 1 26360U 00025A 08131.76255553 -.00000050 00000-0 10000-3 0 895 2 26360 54.2942 293.2911 0035022 75.3954 284.9719 2.00574299 58671 GPS BIIR-05 (PRN 28) 1 26407U 00040A 08132.10704946 .00000055 00000-0 10000-3 0 364 2 26407 55.2168 115.7965 0139664 240.2367 118.3544 2.00558869 57354 GPS BIIR-06 (PRN 14) 1 26605U 00071A 08131.70051478 -.00000097 00000-0 10000-3 0 332 2 26605 56.6823 355.9411 0038646 239.1557 120.5012 2.00562562 54949 GPS BIIR-07 (PRN 18) 1 26690U 01004A 08132.56554030 -.00000056 00000-0 10000-3 0 9187 2 26690 54.3201 296.3251 0092837 217.0309 142.3052 2.00562606 53371 GPS BIIR-08 (PRN 16) 1 27663U 03005A 08131.92147377 .00000053 00000-0 10000-3 0 2945 2 27663 55.3219 115.3082 0049024 328.7127 30.9804 2.00573834 38715 GPS BIIR-09 (PRN 21) 1 27704U 03010A 08131.49039456 -.00000030 00000-0 10000-3 0 1807 2 27704 53.6551 235.7456 0138667 204.3259 155.0370 2.00556978 37491 GPS BIIR-10 (PRN 22) 1 28129U 03058A 08131.61745068 -.00000052 00000-0 10000-3 0 8168 2 28129 54.1870 296.7383 0049472 257.6482 101.7778 2.00563950 32205 GPS BIIR-11 (PRN 19) 1 28190U 04009A 08131.55978721 .00000020 00000-0 10000-3 0 7398 2 28190 54.8528 178.2297 0047286 322.7703 36.9649 2.00563430 30374 GPS BIIR-12 (PRN 23) 1 28361U 04023A 08131.84701093 -.00000098 00000-0 10000-3 0 5756 2 28361 55.6572 354.4557 0053191 159.1565 201.0985 2.00556045 28468 GPS BIIR-13 (PRN 02) 1 28474U 04045A 08132.34229419 -.00000040 00000-0 10000-3 0 4451 2 28474 54.0628 233.7327 0087198 146.3625 214.2122 2.00557916 25836 GPS BIIRM-1 (PRN 17) 1 28874U 05038A 08132.19921268 .00000025 00000-0 10000-3 0 7031 2 28874 54.9817 174.9306 0035755 202.3645 157.5413 2.00555116 19250 GPS BIIRM-2 (PRN 31) 1 29486U 06042A 08131.80802838 -.00000056 00000-0 10000-3 0 2866 2 29486 55.4416 54.0537 0070030 288.6219 70.6206 2.00557874 11940 GPS BIIRM-3 (PRN 12) 1 29601U 06052A 08131.25644458 .00000047 00000-0 10000-3 0 2798 2 29601 55.2231 114.3969 0036496 301.3716 58.2565 2.00569384 10841 GPS BIIRM-4 (PRN 15) 1 32260U 07047A 08130.55902954 -.00000095 00000-0 00000+0 0 908 2 32260 54.8703 353.6665 0009241 280.0994 79.8318 2.00566966 4228 GPS BIIRM-5 (PRN 29) 1 32384U 07062A 08131.38109937 .00000024 00000-0 10000-3 0 944 2 32384 54.9885 175.4307 0039643 278.4118 81.2071 2.00562421 2962 GPS BIIRM-6 (PRN 07) 1 32711U 08012A 08129.97522883 -.00000051 00000-0 10000-3 0 272 2 32711 55.1246 54.3528 0014188 158.6954 201.3593 2.00558935 1142